Temperature
11 11 11 11 12 12 13 13 13 13 14 15 15 15 16 15 15 15 15 15 16 16 16 16 16 16 16 16 16 16 16 16 16 16 16 16 16 16
11 11 11 11 11 12 12 12 13 13 13 14 14 15 15 15 15 15 15 15 15 15 15 15 15 16 16 16 16 16 16 16 16 16 16 16 16 16
11 11 11 11 11 11 11 11 12 12 13 13 13 14 14 14 14 14 14 14 15 15 15 15 15 15 15 15 15 15 15 15 15 15 15 16 16 16
10 10 10 10 10 11 11 11 11 11 12 12 12 13 13 13 14 14 14 14 14 15 15 15 15 15 15 15 15 15 15 15 15 15 15 15 15 16
10 10 10 10 10 10 10 10 11 11 11 11 12 12 13 13 13 13 14 14 14 14 15 15 15 15 15 15 15 15 15 15 15 15 15 15 15 15
10 10 10 10 10 10 10 10 10 10 10 11 11 12 12 13 13 13 13 14 14 14 14 15 15 15 15 15 15 15 15 15 15 15 15 15 15 15
10 10 9 9 9 10 10 10 10 10 10 10 10 11 12 12 13 13 13 13 13 13 14 14 15 15 15 15 15 15 15 15 15 15 15 15 15 15
10 9 9 9 10 10 10 10 10 10 10 10 10 10 11 12 12 12 13 13 13 13 13 14 14 14 15 15 14 14 14 15 15 15 15 15 15 15
10 9 9 9 9 10 9 9 9 10 10 9 9 10 10 11 11 11 12 12 12 12 13 13 13 14 14 14 14 14 14 14 14 14 15 15 15 15
10 9 9 9 9 9 9 9 9 9 9 9 9 10 10 10 10 10 10 11 11 12 12 12 13 13 13 14 14 14 14 14 14 14 14 14 15 15
9 9 9 9 9 9 9 9 9 9 9 9 9 9 9 10 10 10 10 10 10 11 12 12 12 12 13 13 13 14 14 14 14 14 14 14 14 14
9 9 9 9 9 9 9 9 8 9 8 8 9 9 9 9 9 9 9 9 9 10 12 12 12 12 12 12 13 13 13 13 14 14 14 14 14 14
9 9 9 9 9 9 9 8 8 8 8 8 8 8 8 9 9 9 9 9 9 10 11 11 12 12 12 12 12 12 13 13 13 14 14 14 14 14
9 9 9 9 9 9 8 8 8 8 7 7 7 8 8 8 9 9 9 9 10 10 11 11 11 11 11 12 12 12 12 12 13 13 13 13 13 13
9 9 8 8 8 8 8 8 8 7 7 7 7 7 8 8 8 9 9 9 9 10 10 11 11 11 11 11 12 12 12 12 12 12 12 12 13 13
9 8 8 8 8 8 8 8 8 8 7 7 7 7 7 8 8 9 9 9 9 9 10 10 11 11 11 11 12 12 12 12 12 12 12 12 12 12
8 8 8 8 8 8 8 8 8 7 7 7 7 7 7 7 8 8 9 9 9 9 10 10 10 11 11 11 11 11 12 12 12 12 12 11 12 12
8 8 8 8 8 8 8 8 8 8 8 8 7 7 7 7 8 8 8 9 9 9 10 10 10 10 10 10 11 11 11 11 12 11 11 11 11 11
8 8 8 8 8 8 8 8 8 8 8 8 8 8 7 7 7 8 8 8 9 9 9 10 10 10 10 10 10 11 11 11 11 11 11 11 12 12
8 8 8 8 8 8 8 8 8 8 8 8 8 8 8 7 7 7 8 8 8 9 9 10 10 10 10 10 10 10 10 11 11 11 11 11 11 11
8 8 8 8 8 8 8 8 8 8 8 8 8 8 8 7 7 7 7 8 8 8 9 9 10 10 10 10 10 10 10 10 11 11 11 11 11 11
8 8 8 8 8 8 8 8 8 8 8 8 8 8 8 7 7 7 7 8 8 8 9 9 10 10 10 10 10 10 10 10 10 10 10 11 11 11
8 8 8 8 8 8 8 8 8 8 8 8 8 8 8 8 8 8 8 8 8 8 9 9 9 9 10 10 10 10 10 10 9 9 10 10 11 11
Wind_Speed
6 7 5 5 5 5 5 5 5 7 7 6 3 2 2 4 6 6 7 9 13 16 18 19 21 23 25 27 29 31 31 31 31 31 31 31 30 29
6 7 6 5 6 5 5 5 5 6 7 6 6 4 2 2 5 5 6 9 13 15 17 19 20 21 23 24 26 28 30 30 30 30 30 31 30 30
7 8 7 7 6 5 6 6 6 5 7 6 6 5 3 3 2 4 6 7 10 15 18 19 19 20 21 22 23 24 27 29 30 30 31 31 31 30
8 8 8 8 7 6 6 7 6 6 6 8 7 7 7 5 5 5 5 7 8 12 17 18 19 19 20 21 22 24 25 28 29 29 30 30 30 30
7 8 8 8 8 7 7 7 6 8 6 6 7 6 6 6 5 5 6 5 6 8 13 16 17 18 19 19 20 22 24 26 27 28 29 30 30 30
7 7 8 8 8 8 8 8 8 7 7 7 7 7 7 7 5 5 5 5 5 6 7 10 13 16 17 17 18 19 22 24 25 26 27 29 29 29
7 7 9 10 11 9 9 7 6 5 6 6 7 7 7 6 5 5 6 5 6 5 5 6 7 7 10 13 15 17 19 21 23 25 26 27 28 28
8 8 9 11 13 16 16 14 10 9 7 7 7 7 7 6 5 6 5 4 4 4 6 6 6 7 6 9 13 16 17 18 20 22 23 24 25 25
9 8 11 12 10 7 10 15 15 16 14 10 10 10 9 8 6 7 7 6 5 4 4 6 6 6 4 7 14 16 16 16 16 18 20 21 22 22
10 10 11 11 12 9 8 8 8 10 12 12 12 12 12 9 7 6 7 8 7 6 5 5 4 4 3 3 10 13 14 14 15 16 18 19 19 20
11 12 11 11 12 12 8 8 8 8 12 15 15 14 15 13 8 5 6 6 7 6 5 5 3 3 2 2 4 8 11 13 14 15 16 17 18 17
9 9 13 13 13 11 8 8 9 8 8 9 9 11 13 13 14 10 8 8 7 6 5 5 4 4 3 2 3 5 6 9 12 14 16 18 20 13
8 7 6 7 11 12 11 8 10 8 7 8 8 8 9 9 10 11 11 10 10 8 4 5 4 5 4 3 3 4 4 4 6 8 15 19 20 15
9 8 4 2 6 9 9 11 12 9 8 9 9 9 9 9 9 10 11 12 10 11 8 5 5 5 5 4 4 4 4 4 5 5 8 14 14 14
10 11 9 8 8 9 14 16 13 9 10 10 11 10 9 9 8 8 9 10 11 12 13 9 8 7 6 5 5 5 4 4 6 7 7 8 6 9
11 12 15 16 14 13 12 11 10 11 11 11 9 9 8 8 8 8 8 8 9 9 10 11 9 10 8 6 6 7 6 7 8 8 7 6 7 11
4 7 9 9 9 9 10 10 10 10 12 11 10 10 9 9 8 7 7 8 8 9 8 8 8 8 9 7 7 8 8 6 8 8 8 7 6 7
4 9 11 11 11 10 9 9 9 10 10 10 10 10 10 9 8 8 8 8 9 8 8 7 7 5 4 3 6 9 9 8 8 9 7 7 7 6
7 10 11 11 11 10 9 9 9 9 9 9 10 10 9 9 9 9 8 8 9 9 8 8 9 10 10 8 5 6 9 9 10 8 8 5 7 9
10 11 12 11 11 10 9 9 9 8 8 9 10 9 9 9 10 10 10 10 10 9 9 8 10 11 12 9 6 4 9 12 10 10 7 4 5 6
10 10 10 10 10 9 9 8 8 8 8 8 9 9 9 10 10 11 10 12 12 10 10 10 11 13 7 7 7 6 5 9 12 9 10 8 6 6
10 9 9 9 8 8 8 8 8 8 8 8 9 9 9 10 11 12 11 10 10 11 11 9 10 10 9 10 10 10 7 6 6 11 8 4 7 10
9 8 8 8 7 7 7 8 9 7 7 8 8 8 9 9 10 10 10 10 10 10 10 9 9 9 10 10 10 9 11 10 7 6 4 11 3 3
Wind_Direction
280 287 281 287 286 283 281 273 277 287 291 300 297 206 180 178 182 213 238 234 224 224 226 224 222 221 221 221 219 218 217 216 215 215 213 213 213 215
263 267 276 277 292 302 299 289 273 270 279 291 296 277 236 230 193 221 243 238 227 225 224 224 222 222 221 221 221 219 217 216 215 215 214 213 213 214
269 269 265 266 271 285 294 294 290 282 278 286 291 298 270 269 240 236 251 242 230 223 221 222 222 222 221 220 221 221 219 217 216 216 214 213 214 216
268 269 268 267 259 260 270 278 281 285 285 283 288 291 280 261 247 237 243 246 230 224 220 220 220 220 219 219 220 221 220 218 215 214 214 213 214 215
269 269 269 268 264 259 261 267 275 279 282 282 283 278 277 268 257 247 246 241 233 227 218 219 220 218 218 218 219 221 220 218 215 213 213 213 214 215
266 265 266 264 260 256 258 254 260 267 276 279 277 277 275 269 254 241 248 234 227 222 210 212 216 215 216 215 215 218 217 215 214 214 214 214 214 215
275 271 269 266 261 255 257 254 262 267 274 277 274 274 272 273 266 250 250 242 225 211 203 202 200 204 209 215 214 214 214 213 211 212 213 213 212 212
280 276 276 270 258 243 239 243 246 254 261 270 278 279 290 306 321 316 297 275 256 219 207 218 201 204 200 201 204 205 206 208 210 209 209 209 208 207
270 270 273 274 286 271 241 235 241 244 241 249 264 273 283 294 322 326 321 313 288 274 224 233 214 209 187 188 190 193 196 196 201 203 203 203 203 201
261 259 259 264 271 275 277 261 245 242 237 235 240 250 260 270 281 290 299 299 286 264 225 233 214 197 158 150 182 187 191 192 194 197 197 196 195 195
258 257 254 253 253 249 250 256 260 259 258 247 232 235 237 245 250 270 280 283 283 275 224 207 195 165 149 151 166 185 191 192 190 191 190 186 182 179
261 258 256 252 251 231 232 245 255 259 267 278 263 249 247 247 238 234 243 255 264 271 237 196 184 166 167 160 160 171 180 189 186 183 180 176 168 161
268 272 273 261 238 226 227 243 254 266 273 271 270 261 248 242 239 229 223 228 239 247 245 204 196 183 170 158 166 171 170 165 170 173 174 172 170 165
264 272 279 243 228 228 229 242 249 252 258 259 258 256 250 244 237 230 223 219 222 234 244 226 221 201 179 170 175 166 163 163 160 156 161 169 174 173
256 268 278 259 251 247 242 241 241 242 244 248 251 252 250 248 245 240 237 230 225 228 232 223 221 221 205 190 171 166 161 167 163 156 159 165 164 157
253 263 261 254 246 249 255 245 233 235 237 242 246 250 252 252 249 242 240 235 233 231 223 216 208 211 217 208 178 176 170 169 168 161 155 157 162 167
291 274 270 265 257 248 243 239 233 226 230 237 242 246 248 249 248 246 242 236 234 231 220 209 206 205 211 205 192 183 171 164 166 161 157 158 165 170
256 263 264 264 263 261 256 248 239 234 231 228 231 236 240 241 244 242 235 235 236 231 222 206 184 177 183 218 200 181 172 168 165 164 159 158 167 171
237 254 257 259 260 260 258 257 253 240 229 226 230 232 233 235 236 240 238 235 233 229 224 208 192 191 198 203 195 185 172 165 163 168 170 160 169 173
237 248 254 255 257 259 259 258 257 247 231 226 228 230 230 232 234 235 234 233 231 226 221 213 201 199 202 191 169 169 169 164 167 170 164 130 110 116
252 248 251 255 259 259 258 257 254 250 239 228 228 228 226 228 232 234 232 228 226 224 220 214 208 197 188 159 154 152 153 161 168 167 160 147 141 145
263 267 264 261 261 261 257 256 253 248 242 236 231 228 227 227 230 232 229 225 222 220 221 211 193 188 188 187 177 159 149 136 115 118 110 110 164 169
264 270 271 268 264 262 259 257 255 250 245 242 236 230 229 228 226 227 227 224 221 217 210 202 193 191 194 190 175 161 155 151 145 131 71 20 74 140
Height
1517 1517 1516 1516 1516 1516 1516 1516 1516 1514 1513 1512 1512 1511 1510 1509 1509 1509 1509 1510 1511 1512 1514 1517 1519 1523 1526 1530 1534 1538 1542 1546 1551 1556 1561 1565 1570 1574
1513 1513 1512 1512 1512 1512 1512 1512 1512 1511 1509 1509 1508 1508 1507 1506 1505 1505 1505 1505 1506 1507 1509 1511 1514 1516 1519 1522 1526 1529 1533 1538 1542 1548 1553 1558 1562 1567
1509 1509 1508 1508 1507 1507 1507 1507 1507 1507 1506 1505 1505 1504 1504 1503 1502 1501 1501 1501 1501 1502 1504 1506 1508 1510 1512 1515 1518 1521 1525 1529 1534 1539 1544 1549 1555 1560
1505 1504 1503 1503 1503 1502 1502 1502 1502 1502 1502 1500 1500 1500 1499 1499 1498 1497 1497 1497 1497 1497 1499 1500 1502 1504 1507 1509 1511 1514 1517 1521 1525 1530 1535 1541 1547 1552
1500 1499 1498 1498 1498 1497 1497 1497 1497 1498 1497 1496 1495 1495 1495 1495 1494 1493 1493 1493 1493 1493 1494 1495 1497 1499 1501 1503 1505 1507 1510 1513 1518 1522 1527 1533 1539 1544
1495 1494 1493 1493 1492 1492 1492 1492 1492 1492 1492 1491 1491 1490 1490 1490 1490 1489 1489 1488 1488 1488 1489 1490 1491 1493 1495 1497 1499 1501 1503 1506 1510 1514 1519 1525 1530 1536
1489 1488 1488 1487 1486 1486 1487 1487 1487 1487 1486 1486 1486 1486 1486 1486 1486 1485 1484 1484 1483 1484 1484 1485 1486 1488 1489 1491 1493 1495 1497 1500 1503 1507 1512 1517 1523 1528
1483 1482 1481 1481 1480 1480 1480 1481 1481 1481 1481 1481 1481 1481 1481 1481 1481 1480 1480 1480 1479 1480 1480 1480 1481 1482 1484 1486 1488 1490 1492 1494 1497 1501 1505 1510 1516 1521
1477 1476 1475 1475 1476 1475 1474 1474 1474 1475 1475 1475 1475 1475 1475 1476 1476 1475 1475 1475 1475 1476 1476 1476 1477 1477 1479 1480 1483 1485 1487 1489 1492 1495 1500 1504 1510 1515
1471 1470 1469 1468 1469 1469 1469 1468 1468 1468 1468 1468 1468 1468 1469 1470 1471 1471 1471 1470 1470 1471 1472 1472 1472 1473 1474 1476 1478 1480 1482 1485 1488 1491 1494 1499 1504 1509
1465 1464 1464 1463 1463 1463 1462 1462 1462 1462 1462 1462 1462 1462 1462 1463 1464 1465 1465 1466 1465 1466 1467 1468 1468 1469 1469 1471 1473 1476 1478 1481 1483 1487 1490 1494 1499 1505
1460 1459 1459 1458 1457 1457 1456 1456 1455 1455 1455 1455 1455 1455 1455 1455 1457 1458 1459 1460 1460 1461 1462 1463 1464 1465 1466 1467 1469 1471 1474 1477 1480 1483 1486 1490 1495 1500
1455 1454 1453 1452 1451 1451 1450 1450 1449 1449 1448 1447 1447 1447 1447 1448 1448 1449 1451 1452 1454 1455 1458 1459 1460 1460 1461 1463 1465 1467 1470 1472 1475 1479 1482 1487 1491 1496
1449 1448 1447 1446 1445 1444 1443 1443 1442 1442 1440 1440 1439 1439 1440 1440 1441 1442 1444 1445 1446 1448 1452 1454 1455 1456 1457 1459 1461 1463 1465 1468 1472 1475 1478 1483 1488 1492
1443 1442 1441 1440 1438 1437 1436 1435 1435 1433 1432 1432 1431 1431 1432 1433 1435 1436 1438 1439 1440 1442 1444 1447 1450 1452 1453 1455 1456 1458 1461 1464 1467 1471 1475 1479 1483 1488
1436 1435 1434 1432 1431 1429 1428 1427 1426 1425 1425 1424 1424 1424 1425 1427 1428 1429 1431 1432 1433 1434 1437 1440 1443 1446 1448 1450 1452 1454 1457 1459 1463 1467 1471 1476 1480 1485
1429 1428 1426 1425 1423 1422 1420 1419 1419 1418 1417 1417 1417 1418 1418 1419 1420 1422 1424 1426 1427 1428 1430 1433 1436 1440 1443 1445 1447 1449 1452 1455 1459 1463 1468 1472 1477 1482
1422 1420 1418 1417 1416 1415 1414 1413 1412 1411 1410 1410 1410 1411 1412 1412 1413 1415 1417 1419 1420 1422 1424 1427 1430 1434 1437 1440 1442 1444 1447 1451 1455 1459 1464 1468 1473 1478
1414 1411 1410 1409 1407 1407 1406 1405 1404 1404 1403 1403 1403 1404 1404 1405 1406 1408 1409 1411 1413 1415 1418 1421 1424 1426 1429 1432 1436 1440 1442 1446 1450 1455 1460 1465 1470 1475
1406 1404 1402 1401 1400 1399 1398 1397 1397 1396 1396 1396 1395 1396 1397 1398 1399 1400 1402 1403 1406 1408 1411 1414 1416 1419 1422 1427 1431 1434 1438 1441 1446 1451 1456 1462 1467 1473
1400 1398 1396 1394 1393 1392 1391 1390 1389 1389 1388 1388 1388 1388 1389 1390 1390 1392 1394 1396 1398 1401 1403 1406 1409 1414 1419 1424 1427 1429 1433 1438 1442 1446 1451 1457 1461 1466
1393 1391 1389 1388 1386 1385 1383 1382 1382 1381 1381 1381 1380 1380 1381 1381 1382 1384 1386 1388 1390 1393 1396 1400 1404 1409 1413 1416 1420 1424 1428 1433 1438 1443 1448 1452 1455 1460
1386 1384 1382 1380 1379 1378 1376 1375 1375 1374 1374 1373 1373 1373 1373 1374 1375 1376 1378 1380 1383 1387 1390 1394 1398 1402 1406 1411 1415 1419 1424 1428 1433 1438 1443 1448 1454 1459